Regional Weather Roundup
Issued by NWS

Home | Current Version | Previous Version | Graphics & Text | Print | Product List | Glossary On
Versions: 1 2 3 4 5 6 7 8 9 10 11 12 13 14 15 16 17 18 19 20 21 22 23 24 25 26 27 28 29 30 31 32 33 34 35 36 37 38 39 40 41 42 43 44 45 46 47 48 49 50
000
ASUS43 KLMK 242010
RWRKY
KENTUCKY REGIONAL WEATHER ROUNDUP
NATIONAL WEATHER SERVICE LOUISVILLE KY
300 PM EST SAT FEB 24 2018

NOTE "FAIR" INDICATES FEW OR NO CLOUDS BELOW 12,000 FEET
WITH NO SIGNIFICANT WEATHER AND/OR OBSTRUCTIONS TO VISIBILITY.

KYZ001>023-026-027-061>063-070>075-242100-
WESTERN AND SOUTH CENTRAL KENTUCKY

CITY           SKY/WX    TMP DP  RH WIND       PRES   REMARKS
PADUCAH        TSTM      56  55  97 SE6       29.84R FOG
HENDERSON      CLOUDY    53  52  96 E7        29.87F
OWENSBORO      LGT RAIN  54  53  97 S6        29.88S FOG
HOPKINSVILLE   LGT RAIN  68  64  88 S9        29.87S
BOWLING GREEN  CLOUDY    72  63  73 S8G20     29.88F
GLASGOW        PTSUNNY   72  61  68 S8G16     29.90F
$$

KYZ024-025-028>034-038-045-046-053-242100-
NORTH CENTRAL KENTUCKY

CITY           SKY/WX    TMP DP  RH WIND       PRES   REMARKS
LOUISVILLE/SDF DRIZZLE   54  52  93 SE12      29.92F FOG
LOUISVILLE/LOU LGT RAIN  54  53  97 SE10      29.92F
FORT KNOX      CLOUDY    52  52 100 E10       29.91F
$$

KYZ035>037-039>044-047>052-055>060-089>105-242100-
NORTHEAST KENTUCKY

CITY           SKY/WX    TMP DP  RH WIND       PRES   REMARKS
LEXINGTON      CLOUDY    55  51  86 E10       29.96F
COVINGTON      CLOUDY    55  51  86 E10       29.93F
FRANKFORT      LGT RAIN  52  49  89 E7        29.94F FOG
$$

KYZ054-064>069-076>088-106>120-242100-
SOUTHEAST KENTUCKY

CITY           SKY/WX    TMP DP  RH WIND       PRES   REMARKS
JACKSON        CLOUDY    67  62  84 VRB3      29.98F
LONDON         CLOUDY    67  62  84 S14G21    29.99F
SOMERSET       PTSUNNY   70  61  73 S5        29.96F
MIDDLESBORO    CLOUDY    66  62  86 S13G20    30.02S
MONTICELLO     CLOUDY    71  61  70 S7        29.96F
$$





USA.gov is the U.S. government's official web portal to all federal, state and local government web resources and services.